Heubes-Wetterstation in 44289 Dortmund
Heubes-Wetterstation

Messwerte der letzten 60 Minuten im Minuten-Intervall (Wetterstation 44289 Dortmund)

Datum & Uhrzeit Temp. Feucht. Wind-Ø Böen Sekt.  Regen Rate Luftdruck
18.02.2019 - 21:2710.7 °C56%5 km/h 19 km/h W-SW0.0 mm 0.0 mm 1015.5 hPa, gleichbleibend
18.02.2019 - 21:2610.7 °C56%5 km/h 11 km/h S-SO0.0 mm 0.0 mm 1015.5 hPa, gleichbleibend
18.02.2019 - 21:2510.7 °C56%5 km/h 7 km/h S-SO0.0 mm 0.0 mm 1015.5 hPa, gleichbleibend
18.02.2019 - 21:2410.7 °C56%5 km/h 13 km/h S-SO0.0 mm 0.0 mm 1015.5 hPa, gleichbleibend
18.02.2019 - 21:2310.7 °C56%5 km/h 13 km/h S0.0 mm 0.0 mm 1015.5 hPa, gleichbleibend
18.02.2019 - 21:2210.7 °C56%5 km/h 18 km/h S-SO0.0 mm 0.0 mm 1015.5 hPa, gleichbleibend
18.02.2019 - 21:2110.7 °C56%5 km/h 7 km/h S0.0 mm 0.0 mm 1015.5 hPa, gleichbleibend
18.02.2019 - 21:2010.7 °C56%7 km/h 11 km/h S-SW0.0 mm 0.0 mm 1015.5 hPa, gleichbleibend
18.02.2019 - 21:1910.7 °C55%7 km/h 10 km/h S-SW0.0 mm 0.0 mm 1015.5 hPa, gleichbleibend
18.02.2019 - 21:1810.8 °C55%7 km/h 23 km/h S-SW0.0 mm 0.0 mm 1015.5 hPa, gleichbleibend
18.02.2019 - 21:1710.8 °C55%7 km/h 8 km/h S-SW0.0 mm 0.0 mm 1015.5 hPa, gleichbleibend
18.02.2019 - 21:1610.8 °C55%7 km/h 13 km/h S-SW0.0 mm 0.0 mm 1015.5 hPa, gleichbleibend
18.02.2019 - 21:1510.8 °C55%7 km/h 11 km/h S-SW0.0 mm 0.0 mm 1015.5 hPa, gleichbleibend
18.02.2019 - 21:1410.8 °C55%6 km/h 10 km/h S-SW0.0 mm 0.0 mm 1015.5 hPa, gleichbleibend
18.02.2019 - 21:1310.8 °C55%5 km/h 13 km/h SW0.0 mm 0.0 mm 1015.5 hPa, langsam steigend
18.02.2019 - 21:1210.9 °C55%5 km/h 10 km/h SW0.0 mm 0.0 mm 1015.4 hPa, gleichbleibend
18.02.2019 - 21:1110.9 °C55%5 km/h 11 km/h SW0.0 mm 0.0 mm 1015.4 hPa, gleichbleibend
18.02.2019 - 21:1010.9 °C54.5%5 km/h 13 km/h S0.0 mm 0.0 mm 1015.4 hPa, gleichbleibend
18.02.2019 - 21:0910.9 °C54%5 km/h 11 km/h O-SO0.0 mm 0.0 mm 1015.4 hPa, gleichbleibend
18.02.2019 - 21:0810.9 °C54%5 km/h 10 km/h S-SO0.0 mm 0.0 mm 1015.4 hPa, gleichbleibend
18.02.2019 - 21:0710.9 °C54%7 km/h 7 km/h S-SW0.0 mm 0.0 mm 1015.4 hPa, langsam fallend
18.02.2019 - 21:0610.9 °C54%7 km/h 13 km/h W-SW0.0 mm 0.0 mm 1015.5 hPa, gleichbleibend
18.02.2019 - 21:0511.0 °C54%7 km/h 11 km/h SW0.0 mm 0.0 mm 1015.5 hPa, gleichbleibend
18.02.2019 - 21:0411.0 °C54%7 km/h 14 km/h SW0.0 mm 0.0 mm 1015.5 hPa, gleichbleibend
18.02.2019 - 21:0311.0 °C54%7 km/h 3 km/h S-SW0.0 mm 0.0 mm 1015.5 hPa, gleichbleibend
18.02.2019 - 21:0211.1 °C54%7 km/h 14 km/h S0.0 mm 0.0 mm 1015.5 hPa, gleichbleibend
18.02.2019 - 21:0111.1 °C54%8 km/h 14 km/h SW0.0 mm 0.0 mm 1015.5 hPa, gleichbleibend
18.02.2019 - 21:0011.1 °C54%8 km/h 16 km/h S0.0 mm 0.0 mm 1015.5 hPa, gleichbleibend
18.02.2019 - 20:5911.1 °C54%8 km/h 16 km/h S-SO0.0 mm 0.0 mm 1015.5 hPa, langsam steigend
18.02.2019 - 20:5811.1 °C54%8 km/h 23 km/h S0.0 mm 0.0 mm 1015.4 hPa, langsam fallend
18.02.2019 - 20:5711.1 °C54%8 km/h 16 km/h S0.0 mm 0.0 mm 1015.5 hPa, gleichbleibend
18.02.2019 - 20:5611.1 °C54%8 km/h 13 km/h S0.0 mm 0.0 mm 1015.5 hPa, gleichbleibend
18.02.2019 - 20:5511.1 °C54%8 km/h 11 km/h SW0.0 mm 0.0 mm 1015.5 hPa, langsam steigend
18.02.2019 - 20:5411.1 °C54%8 km/h 14 km/h SW0.0 mm 0.0 mm 1015.4 hPa, langsam fallend
18.02.2019 - 20:5311.1 °C54%8 km/h 8 km/h SW0.0 mm 0.0 mm 1015.5 hPa, gleichbleibend
18.02.2019 - 20:5211.1 °C54%8 km/h 11 km/h W-SW0.0 mm 0.0 mm 1015.5 hPa, gleichbleibend
18.02.2019 - 20:5111.1 °C54%8 km/h 19 km/h S-SW0.0 mm 0.0 mm 1015.5 hPa, gleichbleibend
18.02.2019 - 20:5011.1 °C53.5%8 km/h 16 km/h SW0.0 mm 0.0 mm 1015.5 hPa, gleichbleibend
18.02.2019 - 20:4911.1 °C53%7 km/h 18 km/h S-SW0.0 mm 0.0 mm 1015.5 hPa, gleichbleibend
18.02.2019 - 20:4811.1 °C53%7 km/h 13 km/h SW0.0 mm 0.0 mm 1015.5 hPa, gleichbleibend
18.02.2019 - 20:4711.1 °C53%7 km/h 16 km/h S-SW0.0 mm 0.0 mm 1015.5 hPa, langsam steigend
18.02.2019 - 20:4611.1 °C53%7 km/h 14 km/h SW0.0 mm 0.0 mm 1015.4 hPa, langsam fallend
18.02.2019 - 20:4511.1 °C53%7 km/h 14 km/h S0.0 mm 0.0 mm 1015.5 hPa, gleichbleibend
18.02.2019 - 20:4411.1 °C53%7 km/h 16 km/h W-SW0.0 mm 0.0 mm 1015.5 hPa, gleichbleibend
18.02.2019 - 20:4311.1 °C53%7 km/h 13 km/h SW0.0 mm 0.0 mm 1015.5 hPa, gleichbleibend
18.02.2019 - 20:4211.1 °C53%7 km/h 16 km/h SW0.0 mm 0.0 mm 1015.5 hPa, gleichbleibend
18.02.2019 - 20:4111.1 °C53%7 km/h 13 km/h S-SW0.0 mm 0.0 mm 1015.5 hPa, gleichbleibend
18.02.2019 - 20:4011.2 °C53%7 km/h 11 km/h SW0.0 mm 0.0 mm 1015.5 hPa, gleichbleibend
18.02.2019 - 20:3911.1 °C53%7 km/h 16 km/h S0.0 mm 0.0 mm 1015.5 hPa, gleichbleibend
18.02.2019 - 20:3811.1 °C53%6 km/h 7 km/h SW0.0 mm 0.0 mm 1015.5 hPa, gleichbleibend
18.02.2019 - 20:3711.1 °C53%5 km/h 10 km/h SW0.0 mm 0.0 mm 1015.5 hPa, gleichbleibend
18.02.2019 - 20:3611.1 °C53%5 km/h 14 km/h S-SW0.0 mm 0.0 mm 1015.5 hPa, gleichbleibend
18.02.2019 - 20:3511.1 °C52%5 km/h 14 km/h W-SW0.0 mm 0.0 mm 1015.5 hPa, gleichbleibend
18.02.2019 - 20:3411.2 °C52%5 km/h 18 km/h SW0.0 mm 0.0 mm 1015.5 hPa, gleichbleibend
18.02.2019 - 20:3311.2 °C52%5 km/h 8 km/h SW0.0 mm 0.0 mm 1015.5 hPa, gleichbleibend
18.02.2019 - 20:3211.2 °C52%5 km/h 16 km/h SW0.0 mm 0.0 mm 1015.5 hPa, gleichbleibend
18.02.2019 - 20:3111.2 °C52%5 km/h 10 km/h SW0.0 mm 0.0 mm 1015.5 hPa, langsam steigend
18.02.2019 - 20:3011.2 °C52%5 km/h 14 km/h W-SW0.0 mm 0.0 mm 1015.4 hPa, gleichbleibend
18.02.2019 - 20:2911.2 °C52%5 km/h 8 km/h S0.0 mm 0.0 mm 1015.4 hPa, gleichbleibend
18.02.2019 - 20:2811.2 °C52%7 km/h 1 km/h W-SW0.0 mm 0.0 mm 1015.4 hPa, gleichbleibend